Temperature
27 26 26 25 28 29 29 30 30 30 29 29 28 28 27 26 25 23 22 22 20 20 20 20 19 19 19 19 19 18 18 18 18 18 18 18 18 18 18 18 18 18 18 18 18 18 18 18 18
27 26 27 28 29 29 29 30 30 30 30 29 28 27 26 25 24 23 22 21 21 19 19 19 19 19 19 19 18 18 18 18 18 18 18 18 18 18 18 18 18 18 18 18 18 18 18 18 18
28 27 29 31 31 30 29 31 30 30 30 29 28 27 26 25 24 23 22 22 21 20 20 20 19 19 19 19 18 18 18 18 18 18 18 18 18 18 18 18 18 18 18 18 18 18 18 18 18
27 30 31 32 31 31 31 31 31 31 30 29 28 26 25 25 24 23 22 22 21 19 20 20 20 19 19 19 19 18 18 18 18 18 18 18 18 18 18 18 18 18 18 18 18 18 18 18 18
29 31 33 32 31 32 32 32 31 31 30 29 27 26 25 24 23 23 23 22 21 20 20 20 20 19 19 19 19 18 18 18 18 18 18 18 18 18 18 18 18 18 18 18 18 18 18 18 18
31 33 32 31 32 32 33 32 31 31 30 29 27 26 25 24 24 24 23 23 22 20 20 20 20 19 19 19 19 19 18 18 18 18 18 18 18 18 18 18 18 18 18 18 18 18 18 18 18
33 33 33 32 32 32 33 32 31 31 30 29 28 26 25 25 24 24 23 23 22 21 20 20 20 20 19 19 19 19 19 18 18 18 18 18 18 18 18 18 18 18 18 18 18 18 18 18 18
33 34 33 33 32 32 33 32 31 30 30 30 29 27 25 25 24 24 23 23 22 22 21 19 19 19 19 19 19 19 19 19 18 18 18 18 18 18 18 18 18 18 18 18 18 18 18 18 18
34 33 33 33 33 32 33 32 31 30 30 29 29 27 25 24 25 24 23 23 22 22 21 21 20 19 19 19 19 19 19 19 18 18 18 18 18 18 18 18 18 18 18 18 18 18 18 18 18
34 33 33 34 34 34 33 32 32 31 30 28 27 26 25 25 25 24 24 23 22 22 21 21 20 20 20 19 19 19 18 18 18 18 18 18 18 18 18 18 18 18 18 18 18 18 18 18 18
35 34 34 35 34 34 33 33 32 32 30 29 27 26 25 25 25 25 24 23 22 22 22 21 20 20 20 20 19 19 19 18 18 18 18 18 18 18 18 18 18 18 18 18 18 18 18 18 18
35 35 35 34 34 34 33 33 32 32 30 29 27 26 25 25 25 25 24 23 22 22 22 21 20 20 20 20 20 19 19 19 18 18 18 18 18 18 18 18 18 18 18 18 18 18 18 18 18
35 35 35 34 34 33 33 33 32 31 30 28 27 26 26 26 25 25 24 23 22 22 21 21 20 20 20 20 20 19 19 19 19 19 18 18 18 18 18 18 18 18 18 18 18 18 18 18 18
35 35 35 34 34 33 32 32 31 31 30 28 27 27 26 26 25 24 23 23 22 22 21 20 20 20 19 20 20 19 19 19 19 19 19 18 18 18 18 18 18 18 18 18 18 18 18 18 18
34 34 34 35 34 33 31 30 31 31 30 29 28 27 27 26 25 24 23 23 22 21 21 20 20 20 20 19 20 19 19 19 19 19 18 18 18 18 18 18 18 18 18 18 18 18 18 18 18
34 33 32 34 34 33 32 29 31 31 30 29 29 28 27 26 25 24 23 23 22 21 21 21 20 20 20 20 20 19 19 19 19 19 19 18 18 18 18 18 18 18 18 18 18 18 18 18 18
33 32 32 33 34 34 32 30 31 31 31 30 29 28 27 26 25 25 24 23 22 21 21 21 20 20 20 20 20 19 19 19 19 19 18 18 18 18 18 18 18 18 18 18 18 18 18 18 18
32 33 33 33 34 34 33 32 32 32 31 30 29 28 27 26 25 25 24 23 22 21 21 21 20 20 20 20 20 20 19 19 19 19 19 18 18 18 18 18 18 18 18 18 18 18 18 18 18
33 33 33 34 35 34 33 32 32 32 32 31 30 29 28 27 26 25 24 23 22 21 21 21 20 20 20 20 19 19 19 19 19 19 19 19 19 18 19 19 18 18 18 18 18 18 18 18 18
33 33 33 34 34 34 33 32 33 32 32 31 30 29 28 27 26 25 24 23 22 22 21 21 20 20 20 20 20 19 19 19 19 19 19 19 19 19 18 18 18 18 18 18 18 18 18 18 18
33 33 33 34 34 34 32 31 31 31 32 31 31 30 29 28 26 25 24 23 22 22 21 21 21 20 20 20 20 19 19 19 19 19 19 19 19 19 19 18 18 18 18 18 18 18 18 18 18
32 34 34 34 33 32 33 30 30 31 31 32 31 31 30 28 27 26 24 24 23 22 21 21 21 21 20 20 20 19 19 19 19 19 19 19 19 19 19 18 18 18 18 18 18 18 18 18 18
33 34 34 34 33 32 32 31 30 31 30 32 32 31 30 29 27 26 25 24 23 22 22 21 21 21 20 20 20 19 19 19 19 19 19 19 19 18 18 18 18 18 18 18 18 18 18 18 18
34 34 33 33 33 31 32 32 30 31 32 32 32 31 30 29 28 26 25 24 23 23 22 21 21 21 20 20 19 19 19 19 19 19 19 19 18 18 18 18 18 18 18 18 18 18 18 18 18
33 32 30 30 30 30 32 32 31 33 33 33 32 31 30 29 28 26 25 24 23 23 22 21 21 21 20 20 19 19 19 19 19 19 19 18 18 18 18 18 18 18 18 18 18 18 17 17 17
32 32 30 29 29 31 32 32 32 33 33 33 32 31 30 29 28 26 25 24 23 23 22 22 21 21 20 20 19 19 19 19 19 18 18 18 18 18 18 18 18 18 17 17 17 17 17 17 17
32 32 33 31 31 31 32 32 32 33 33 33 32 31 30 29 28 27 25 24 23 23 22 21 21 21 20 20 20 19 19 19 18 18 18 18 18 18 18 18 17 17 17 17 17 17 17 17 17
33 33 32 31 29 30 31 31 31 32 32 32 32 31 30 29 28 27 25 24 23 23 22 21 21 20 20 20 19 19 19 19 18 18 18 18 18 18 17 17 17 17 17 17 17 17 16 16 16
32 32 32 31 31 30 29 30 32 32 32 32 32 31 30 29 28 26 25 24 23 22 22 21 20 20 20 19 19 19 19 19 18 18 18 18 17 17 17 17 17 17 16 16 16 16 16 16 16
33 32 32 30 30 30 30 30 32 32 32 32 31 31 30 29 27 26 25 24 23 22 21 21 20 20 20 19 19 19 18 18 18 18 17 17 17 17 17 16 16 16 16 16 16 16 16 16 15
Wind_Speed
9 11 9 5 2 7 17 17 17 16 16 15 16 15 18 17 13 12 12 17 18 16 16 16 15 15 15 15 15 15 16 16 16 16 16 16 17 17 17 17 18 18 18 18 18 17 17 17 17
10 11 8 3 4 12 16 15 16 16 15 16 19 20 20 19 17 15 14 15 17 17 16 16 15 15 15 14 14 15 15 15 16 16 16 16 16 16 16 17 17 17 17 17 16 16 16 16 15
11 14 5 2 12 14 15 14 15 14 14 16 19 18 16 15 16 13 14 17 18 17 18 16 15 15 14 14 14 14 14 15 15 15 15 15 15 15 16 16 16 16 16 16 16 16 15 14 13
9 6 2 9 17 15 14 13 14 14 14 15 15 13 15 15 16 15 15 17 18 17 18 16 15 15 14 14 14 14 14 15 15 15 15 15 15 15 16 16 15 15 15 15 15 14 14 12 10
8 4 6 14 17 15 14 14 14 14 16 18 19 18 17 16 16 16 14 16 17 18 18 16 15 14 14 13 13 13 13 14 14 15 15 15 15 15 15 15 15 14 14 14 14 13 12 10 8
5 3 7 13 16 14 13 14 14 14 16 18 19 18 15 14 14 13 13 14 17 18 18 17 15 14 13 13 13 13 13 13 14 14 14 14 14 14 14 13 14 14 13 13 12 11 10 8 6
5 2 9 14 14 13 13 13 14 13 13 14 17 16 14 14 13 13 12 13 15 17 17 16 15 14 13 13 12 12 12 12 12 12 12 12 13 13 12 12 12 12 12 11 11 10 9 7 4
3 2 8 13 14 14 13 14 13 13 11 11 13 12 14 14 13 13 11 12 13 13 14 14 15 14 13 12 12 12 11 11 11 11 11 11 12 12 12 11 11 10 10 9 9 8 6 5 3
3 3 9 12 13 13 13 13 13 12 12 13 15 17 17 15 14 14 11 11 11 11 10 11 13 13 13 13 13 12 11 10 10 9 9 9 9 11 10 11 9 9 8 8 7 6 5 4 4
3 6 10 11 12 12 12 12 12 12 14 16 17 18 17 14 13 12 12 12 11 10 9 9 9 8 8 10 11 11 10 10 8 8 9 7 5 8 10 11 9 8 6 6 6 7 6 6 5
6 8 9 11 11 10 11 10 10 11 12 16 18 18 15 13 11 11 11 12 11 8 8 10 9 6 6 6 7 6 7 8 7 6 6 6 6 7 9 9 8 8 8 6 7 8 8 7 5
6 6 7 10 9 8 9 10 11 12 14 17 18 17 14 13 11 11 12 12 10 8 8 10 9 6 5 4 4 4 5 6 5 5 4 4 2 2 4 4 5 7 5 5 4 4 4 2 1
4 5 6 8 8 8 9 10 11 13 16 18 18 16 14 12 11 11 12 12 10 8 8 9 9 7 5 3 2 3 4 5 7 6 4 4 3 2 2 1 1 2 3 3 2 1 1 0 2
2 3 4 6 8 8 8 6 8 13 16 17 16 14 13 13 12 11 11 10 9 8 9 9 8 7 5 3 1 1 3 5 6 5 5 3 3 2 2 1 1 1 0 1 1 1 0 1 1
2 3 4 5 7 7 8 4 7 11 14 15 15 14 13 13 12 12 11 10 9 8 8 8 8 8 5 4 2 1 2 5 5 5 5 3 3 3 2 1 1 1 1 2 1 2 1 2 2
5 5 4 4 6 8 7 5 9 10 13 14 13 13 12 11 12 11 12 9 9 9 8 6 6 8 6 3 1 0 2 3 4 5 5 4 3 3 1 1 1 0 1 2 2 1 1 1 1
8 8 6 5 6 7 6 7 9 11 13 13 12 12 13 12 11 11 12 10 9 9 8 6 4 7 7 5 3 1 1 1 2 4 4 4 3 3 2 1 1 1 1 1 2 2 1 2 2
7 6 6 7 7 5 6 9 11 12 12 13 13 13 13 13 12 12 11 11 10 9 8 7 5 5 5 5 3 1 1 1 1 2 3 4 3 3 2 2 2 2 1 1 1 0 2 2 3
7 6 4 4 5 2 3 7 10 11 11 12 13 13 13 13 13 12 12 12 11 9 8 7 6 5 4 3 3 3 3 2 2 2 4 4 2 2 2 1 1 2 2 2 2 2 3 3 2
10 8 6 4 4 3 3 3 7 10 11 11 12 13 13 14 13 13 12 12 12 10 9 7 6 6 5 3 2 2 2 2 3 2 3 4 3 2 2 1 2 2 1 2 2 2 2 3 2
9 8 7 4 4 6 4 5 7 9 9 11 12 13 14 15 15 15 13 12 12 11 10 9 7 7 6 5 3 2 1 2 1 2 2 2 2 2 1 0 1 2 2 1 3 2 3 3 2
9 9 8 6 6 6 7 5 7 10 10 11 12 12 14 15 15 15 14 13 12 11 10 8 8 6 6 5 4 4 4 3 2 1 2 2 1 1 1 1 1 2 2 2 3 2 3 3 3
9 7 8 9 9 8 6 5 6 10 11 12 12 11 12 13 14 14 15 13 11 11 11 9 8 7 6 5 5 3 3 2 1 1 2 1 1 1 1 1 1 1 2 2 2 2 2 2 2
8 8 8 10 10 10 10 7 5 7 9 11 11 11 10 12 14 13 13 12 11 10 10 10 8 7 6 6 5 4 3 1 1 0 1 1 1 1 0 1 1 1 2 2 2 2 2 2 2
11 9 7 7 7 9 10 7 5 7 6 6 9 10 10 10 13 13 13 13 11 11 10 10 9 7 6 6 5 4 3 3 2 2 1 1 0 1 2 1 1 1 2 2 2 1 2 1 2
13 13 10 7 7 8 9 5 5 7 6 7 8 9 10 11 11 11 12 13 12 11 9 9 10 8 7 6 4 3 3 2 1 0 0 1 1 2 2 1 1 1 2 2 2 2 2 2 2
14 14 14 12 12 8 5 5 7 8 7 6 8 10 10 11 12 12 12 11 11 11 10 9 9 8 6 6 5 4 3 2 2 1 2 1 1 1 2 2 2 1 2 2 2 2 3 2 2
15 13 9 10 9 9 6 6 7 11 10 8 7 8 9 11 12 13 12 11 10 10 9 9 9 8 7 6 5 4 4 3 3 2 2 3 3 3 3 3 2 2 2 3 2 2 3 3 3
15 15 11 8 9 9 7 3 5 9 8 8 8 9 9 12 12 13 13 12 12 11 10 9 9 8 7 6 5 5 4 4 3 3 3 3 2 2 2 2 3 3 4 3 3 3 3 4 4
16 16 14 10 8 8 7 1 4 6 8 8 8 8 10 11 11 13 13 12 11 11 11 9 9 8 8 7 6 5 5 5 4 4 3 3 2 2 3 2 3 3 4 4 4 4 4 4 5
Wind_Direction
247 241 232 254 252 71 69 67 70 70 68 66 64 68 62 61 76 94 109 107 108 108 106 96 89 88 86 84 84 83 81 81 82 82 83 84 87 88 89 90 92 92 92 92 93 94 95 96 97
268 254 237 238 63 72 71 72 74 74 76 76 74 75 74 74 86 100 106 109 110 109 105 99 95 92 90 88 87 87 85 85 84 85 86 87 89 91 92 92 93 92 93 94 96 98 98 98 99
261 253 259 100 68 72 77 78 82 82 83 82 76 70 75 87 94 105 116 111 104 102 103 102 100 97 94 92 90 88 88 88 87 87 88 89 91 93 92 93 95 95 97 98 98 99 101 100 102
266 256 177 76 75 73 81 91 91 89 88 86 86 80 77 87 102 113 119 115 113 113 108 107 104 100 96 94 93 92 90 91 91 90 90 91 92 94 95 94 96 94 95 97 98 99 102 103 106
253 273 88 84 82 80 78 81 84 85 85 85 88 92 90 95 107 117 121 119 119 113 113 114 110 105 101 98 97 96 96 96 95 94 94 94 95 95 96 95 95 94 94 95 98 99 102 105 108
273 270 87 86 86 84 85 88 87 87 94 102 103 101 103 114 121 125 123 119 119 117 116 118 116 112 108 105 101 98 99 99 100 99 99 99 100 99 99 98 98 97 96 97 99 102 105 109 110
280 351 93 95 94 89 86 90 91 88 89 100 108 110 120 126 125 120 117 114 115 119 125 131 128 122 116 112 109 106 104 104 105 106 108 109 108 107 104 102 101 101 102 103 105 106 112 118 121
326 2 88 94 94 90 90 93 95 96 90 102 115 117 127 128 130 120 118 116 113 115 125 134 133 134 135 127 123 119 117 117 117 117 120 124 124 121 119 112 108 109 110 113 116 120 123 133 155
337 36 76 87 95 100 100 99 101 101 92 77 84 112 125 133 130 129 125 112 107 107 117 125 127 142 142 136 137 139 136 136 138 138 144 152 149 137 131 112 121 122 124 130 137 144 154 170 199
53 64 74 84 94 102 104 107 115 114 105 97 97 109 124 135 137 135 132 123 119 121 121 113 115 122 130 127 144 155 148 156 168 152 164 179 142 127 124 133 143 146 152 160 173 181 191 206 204
68 79 85 91 93 101 105 106 111 112 116 120 122 128 135 138 139 131 123 118 120 124 122 115 110 113 108 115 143 141 135 145 145 133 135 127 129 137 141 154 162 174 184 195 184 201 215 212 204
92 86 89 92 94 102 101 93 92 94 105 118 128 136 141 146 139 130 124 122 123 119 112 112 109 95 76 84 109 126 133 140 133 136 143 123 133 121 128 155 171 179 186 191 191 210 210 221 213
97 102 100 109 112 91 82 87 93 100 107 117 129 139 146 144 134 124 120 119 123 123 114 102 103 100 89 51 24 115 113 120 121 129 115 128 134 113 104 97 153 189 165 168 179 226 156 110 279
105 118 124 122 107 101 96 92 104 113 119 126 136 143 147 138 134 125 122 125 131 131 123 119 121 116 115 113 13 54 105 113 124 129 131 135 114 107 108 153 271 268 136 113 139 214 209 224 264
231 203 171 144 136 129 112 113 118 126 130 137 143 147 143 138 136 136 137 139 140 134 126 129 141 136 142 147 196 154 136 133 129 130 134 142 127 142 164 178 225 212 202 154 207 275 269 237 230
226 231 217 163 155 144 140 133 144 152 144 143 148 148 146 141 146 146 141 140 140 139 137 153 156 141 143 147 195 9 109 113 123 136 144 154 152 170 198 223 226 214 242 196 199 240 275 300 287
225 211 202 182 178 159 152 142 161 162 153 151 152 153 153 153 156 150 147 147 143 138 142 149 141 136 149 161 169 168 88 75 125 137 144 152 170 185 203 214 175 255 281 273 258 148 220 271 276
242 224 198 181 172 172 156 151 160 163 161 156 159 162 161 163 163 155 153 149 145 143 146 151 152 141 152 156 159 183 195 170 177 148 146 146 176 206 236 206 197 221 242 258 272 250 237 247 257
266 265 246 157 135 192 174 159 162 166 166 161 165 165 166 166 163 159 159 156 154 152 153 160 166 159 168 167 178 185 196 203 195 180 162 163 186 210 243 305 181 232 237 243 256 253 252 238 225
255 258 242 167 157 214 206 190 178 174 177 169 170 167 169 166 163 163 163 162 161 159 160 166 174 171 179 175 181 193 210 215 185 148 153 168 186 216 225 206 268 253 251 258 265 256 267 261 225
254 263 266 242 195 206 205 216 198 189 181 173 179 175 175 173 170 168 171 171 170 168 171 178 176 172 179 176 180 205 203 248 235 168 159 171 187 203 282 352 293 298 280 274 269 261 255 261 262
246 246 264 269 258 244 227 229 197 186 193 185 184 180 178 175 172 172 174 175 174 170 171 168 167 168 172 185 195 199 209 217 206 191 151 148 174 208 220 255 287 297 292 282 268 256 260 251 263
251 256 251 260 259 265 249 234 198 186 192 195 186 184 180 170 169 172 172 172 173 171 167 165 160 165 175 191 198 211 239 243 224 131 135 147 163 185 256 235 313 308 299 299 300 315 300 277 259
249 255 245 252 258 255 253 251 181 187 188 184 180 176 175 167 164 166 166 161 166 166 162 161 157 166 174 187 192 199 233 267 292 301 170 184 168 150 4 76 34 348 314 305 300 302 285 275 281
225 234 232 231 237 248 248 241 155 161 167 160 160 162 167 171 161 161 159 158 160 164 166 159 155 162 169 177 186 191 208 219 226 242 231 244 164 92 61 38 29 348 322 316 312 312 303 293 279
217 231 239 243 236 230 225 221 153 139 127 133 145 149 158 163 156 157 155 157 161 165 162 153 151 157 162 168 171 175 186 200 195 242 337 42 50 58 49 62 61 22 346 340 353 333 314 322 309
219 227 241 256 272 270 215 184 152 134 137 137 144 147 156 157 152 152 152 156 158 160 157 152 144 146 151 155 150 148 145 136 124 104 55 48 56 69 48 51 55 38 14 1 10 3 2 356 337
236 231 239 249 267 272 252 219 181 157 158 157 149 148 152 149 151 146 150 153 154 149 142 137 136 139 144 148 156 149 141 140 120 98 85 76 54 34 40 38 30 31 24 17 13 13 13 15 4
219 228 234 245 257 263 267 261 171 152 154 156 152 150 154 145 145 143 145 148 146 142 137 135 135 139 143 141 137 131 132 131 120 100 91 88 69 38 47 40 39 40 33 27 29 33 24 20 12
222 225 224 231 240 260 265 246 112 143 149 148 143 140 135 135 142 144 143 141 140 139 138 139 142 146 145 138 130 124 119 114 109 101 90 85 83 64 53 50 51 53 44 34 37 37 36 33 29
Height
1485 1484 1485 1488 1486 1488 1493 1491 1488 1491 1493 1495 1496 1498 1502 1505 1512 1526 1529 1528 1529 1530 1530 1531 1531 1532 1532 1533 1533 1533 1533 1534 1534 1534 1535 1536 1536 1537 1538 1538 1539 1540 1540 1541 1542 1543 1544 1546 1547
1485 1486 1489 1487 1487 1498 1500 1492 1493 1494 1496 1498 1500 1504 1508 1513 1518 1524 1528 1531 1532 1532 1533 1533 1534 1534 1535 1535 1536 1536 1536 1537 1537 1538 1538 1539 1539 1540 1541 1541 1542 1543 1544 1544 1545 1546 1548 1549 1550
1485 1486 1487 1482 1488 1498 1500 1493 1493 1496 1498 1501 1505 1509 1513 1519 1523 1527 1531 1533 1534 1534 1535 1535 1536 1536 1537 1538 1538 1539 1539 1540 1540 1541 1541 1542 1542 1543 1543 1544 1545 1546 1547 1548 1548 1549 1550 1551 1553
1487 1486 1484 1483 1493 1491 1490 1492 1494 1497 1500 1503 1507 1514 1519 1523 1527 1530 1532 1534 1535 1536 1536 1537 1538 1538 1539 1540 1541 1541 1542 1542 1543 1544 1544 1545 1545 1546 1546 1547 1548 1549 1550 1551 1551 1552 1553 1554 1555
1488 1485 1482 1489 1492 1490 1490 1492 1495 1498 1501 1506 1512 1518 1524 1528 1530 1532 1534 1536 1537 1538 1538 1539 1540 1541 1541 1542 1543 1544 1544 1545 1546 1546 1547 1548 1548 1549 1549 1550 1551 1552 1552 1553 1554 1555 1556 1556 1558
1487 1480 1487 1496 1494 1491 1491 1495 1498 1501 1504 1509 1515 1521 1527 1531 1532 1534 1536 1538 1539 1540 1540 1541 1542 1543 1544 1544 1545 1546 1547 1547 1548 1549 1550 1550 1551 1552 1552 1553 1554 1555 1555 1556 1556 1557 1558 1559 1560
1485 1480 1486 1490 1494 1494 1493 1496 1500 1503 1506 1509 1514 1521 1527 1531 1533 1536 1538 1539 1541 1542 1542 1543 1544 1545 1546 1547 1548 1548 1549 1550 1551 1551 1552 1553 1554 1554 1555 1556 1556 1557 1558 1558 1559 1560 1561 1561 1562
1483 1481 1484 1488 1494 1496 1495 1498 1502 1505 1509 1511 1513 1520 1527 1532 1534 1537 1539 1541 1543 1544 1545 1546 1547 1547 1548 1549 1550 1551 1551 1552 1553 1554 1555 1555 1556 1557 1557 1558 1559 1559 1560 1561 1561 1562 1563 1564 1565
1482 1485 1490 1489 1492 1495 1496 1499 1504 1507 1510 1512 1515 1520 1527 1532 1535 1538 1540 1542 1544 1546 1548 1549 1550 1550 1551 1551 1552 1553 1553 1554 1555 1556 1557 1557 1558 1559 1560 1560 1561 1562 1562 1563 1564 1565 1565 1566 1567
1482 1490 1490 1485 1487 1491 1495 1499 1502 1506 1511 1517 1521 1526 1530 1533 1536 1538 1541 1543 1546 1547 1549 1551 1552 1553 1554 1555 1554 1555 1556 1556 1556 1558 1558 1559 1560 1561 1562 1562 1563 1563 1564 1565 1566 1566 1567 1568 1568
1483 1487 1485 1486 1490 1493 1495 1498 1501 1505 1510 1517 1523 1528 1531 1534 1537 1539 1541 1544 1546 1548 1550 1551 1553 1554 1555 1556 1556 1557 1558 1558 1559 1560 1561 1561 1562 1562 1563 1563 1564 1565 1565 1566 1567 1567 1568 1569 1570
1485 1486 1487 1489 1492 1494 1496 1499 1502 1506 1511 1517 1523 1528 1532 1535 1537 1540 1542 1545 1547 1549 1551 1552 1553 1554 1555 1557 1557 1558 1559 1559 1560 1561 1562 1562 1563 1564 1564 1565 1565 1566 1567 1567 1568 1569 1569 1570 1571
1486 1487 1489 1491 1494 1496 1498 1501 1505 1509 1514 1520 1525 1529 1532 1535 1538 1541 1543 1546 1548 1550 1551 1553 1553 1554 1555 1556 1557 1559 1560 1561 1561 1562 1562 1563 1564 1564 1565 1566 1566 1567 1568 1568 1569 1569 1570 1570 1571
1488 1488 1489 1491 1494 1497 1502 1504 1507 1512 1516 1521 1526 1530 1533 1536 1539 1542 1544 1547 1549 1550 1552 1553 1554 1555 1556 1557 1558 1559 1561 1561 1562 1562 1562 1563 1564 1565 1565 1566 1566 1567 1568 1569 1569 1569 1570 1570 1571
1490 1490 1490 1491 1494 1498 1504 1510 1509 1512 1517 1521 1526 1530 1533 1536 1539 1542 1545 1547 1549 1551 1552 1553 1554 1555 1556 1557 1559 1560 1561 1561 1562 1562 1563 1564 1564 1565 1565 1566 1566 1567 1568 1568 1569 1569 1569 1569 1570
1491 1495 1500 1492 1492 1496 1504 1517 1509 1512 1516 1520 1525 1529 1533 1536 1540 1542 1545 1547 1549 1550 1552 1553 1555 1555 1556 1557 1558 1560 1561 1561 1562 1562 1563 1563 1564 1564 1565 1565 1566 1567 1567 1567 1568 1568 1568 1569 1569
1494 1502 1502 1496 1490 1493 1499 1511 1508 1511 1514 1518 1523 1528 1532 1536 1539 1542 1544 1546 1548 1550 1551 1553 1555 1555 1556 1557 1558 1559 1560 1561 1562 1563 1563 1563 1564 1564 1564 1565 1565 1566 1566 1566 1567 1567 1567 1567 1568
1500 1497 1496 1495 1489 1490 1497 1503 1505 1508 1511 1515 1520 1525 1530 1534 1538 1541 1543 1545 1547 1549 1550 1552 1554 1555 1556 1557 1558 1559 1559 1560 1561 1562 1562 1563 1563 1564 1564 1564 1565 1565 1565 1565 1566 1566 1566 1566 1566
1490 1492 1495 1489 1486 1491 1496 1501 1502 1505 1508 1512 1518 1523 1527 1532 1536 1539 1542 1544 1546 1548 1549 1551 1553 1554 1555 1556 1557 1558 1559 1560 1561 1561 1562 1562 1562 1563 1563 1563 1563 1563 1564 1564 1564 1564 1564 1564 1565
1490 1494 1492 1488 1487 1492 1497 1500 1499 1503 1506 1510 1514 1519 1524 1529 1533 1537 1540 1543 1545 1546 1548 1550 1551 1553 1554 1555 1556 1557 1559 1560 1560 1561 1561 1561 1562 1562 1562 1562 1562 1562 1563 1563 1563 1563 1563 1563 1563
1492 1494 1492 1491 1488 1490 1498 1508 1504 1503 1505 1508 1511 1515 1520 1525 1529 1534 1537 1540 1543 1544 1546 1548 1549 1551 1553 1554 1555 1557 1558 1559 1560 1560 1560 1560 1561 1561 1561 1561 1561 1561 1561 1561 1561 1560 1561 1561 1561
1498 1487 1488 1490 1496 1501 1498 1520 1509 1502 1504 1505 1508 1511 1515 1520 1525 1530 1534 1538 1540 1542 1544 1546 1547 1549 1551 1553 1554 1555 1556 1557 1558 1559 1559 1559 1559 1559 1559 1559 1559 1558 1558 1558 1558 1558 1558 1558 1558
1491 1485 1488 1490 1496 1502 1499 1511 1512 1501 1505 1502 1504 1508 1512 1517 1522 1526 1531 1534 1538 1541 1543 1544 1546 1548 1549 1551 1553 1554 1555 1556 1557 1557 1557 1557 1557 1558 1558 1557 1557 1556 1556 1556 1556 1556 1555 1555 1555
1487 1489 1491 1492 1497 1515 1502 1507 1514 1500 1498 1497 1500 1505 1510 1515 1520 1524 1528 1532 1536 1539 1541 1543 1544 1546 1548 1549 1551 1552 1553 1555 1555 1555 1556 1556 1556 1556 1556 1556 1555 1555 1554 1554 1553 1553 1553 1552 1553
1490 1501 1516 1521 1523 1521 1497 1501 1503 1490 1489 1492 1497 1502 1508 1513 1518 1522 1526 1530 1534 1537 1540 1542 1543 1544 1546 1547 1549 1550 1552 1553 1553 1554 1554 1555 1555 1555 1554 1554 1553 1553 1553 1552 1551 1551 1550 1550 1550
1491 1497 1516 1528 1526 1513 1499 1503 1494 1485 1489 1492 1497 1501 1507 1512 1516 1521 1525 1528 1532 1536 1538 1540 1541 1543 1545 1546 1548 1549 1550 1551 1551 1552 1553 1553 1553 1553 1553 1553 1552 1551 1551 1550 1550 1549 1548 1548 1548
1490 1493 1489 1502 1505 1509 1502 1495 1490 1486 1489 1492 1496 1501 1506 1510 1515 1520 1525 1528 1532 1534 1537 1539 1540 1542 1544 1545 1547 1548 1548 1549 1550 1550 1551 1551 1551 1551 1551 1551 1551 1550 1549 1549 1548 1547 1547 1546 1546
1482 1485 1492 1503 1519 1522 1511 1504 1499 1492 1492 1492 1496 1500 1505 1510 1515 1518 1524 1527 1532 1534 1537 1539 1540 1541 1543 1544 1546 1547 1547 1548 1549 1549 1549 1550 1550 1550 1550 1550 1549 1549 1548 1548 1547 1546 1546 1545 1545
1486 1488 1491 1495 1501 1517 1523 1511 1485 1487 1489 1492 1496 1501 1505 1509 1514 1518 1522 1527 1531 1534 1537 1538 1540 1541 1543 1544 1545 1546 1546 1547 1548 1548 1548 1548 1548 1548 1548 1548 1548 1548 1547 1547 1546 1546 1545 1544 1544
1477 1482 1487 1504 1508 1503 1511 1511 1483 1485 1488 1492 1496 1501 1505 1509 1514 1518 1522 1527 1530 1533 1536 1538 1540 1541 1542 1544 1545 1545 1546 1547 1547 1547 1547 1547 1547 1547 1547 1548 1547 1547 1547 1546 1546 1545 1544 1544 1543